Locarno Airport

Airport
ICAO code: 
LSZL
IATA Code: 
ZJI
Summary
ICAO Region: 
EUR
Territory: 
Location: 
Gordola, Ticino
Serving: 
Locarno
Elevation: 
650 ft
Coordinates: 
Aerial View: 
46° 9' 38.88" N, 8° 52' 42.996" E
Metar
Observation
LSZL 171720Z AUTO 07003KT 020V110 9999NDV NCD 10/M08 Q1024 RMK
Station
LOCARNO
Date/Time
2022-01-17 17:20:00
Wind direction
70°
Wind speed
03 kts
Lowest cloud amount
n/a
Temperature
10°C
Dew point
-8°C
Humidity
27%
QNH
1024 hPa
Weather condition
n/a

Locarno Airport, also known as Locarno-Magadino Airport, is a mixed civilian and military airport (mil ICAO code LSMO), located near the city of Locarno, Ticino, Switzerland.

Climatology

Temperate oceanic climate (Köppen climate classification Cfb)

Runways

Designator Length Width Surface Rops
08C/26C 700 30 Grass No/No
08L/26R 800 23 ASPH No/No
Airport map: 
Aerial View: 

SKYbrary Partners:

Safety knowledge contributed by: